Index of /20260430/WXO-DD/model_gdps/15km/12/069
Name Last modified Size Description
Parent Directory -
20260430T12Z_MSC_GDPS_AbsoluteVorticity_IsbL-0200_LatLon0.15_PT069H.grib2 2026-04-30 16:10 1.5M
20260430T12Z_MSC_GDPS_AbsoluteVorticity_IsbL-0250_LatLon0.15_PT069H.grib2 2026-04-30 16:10 1.3M
20260430T12Z_MSC_GDPS_AbsoluteVorticity_IsbL-0500_LatLon0.15_PT069H.grib2 2026-04-30 16:10 1.4M
20260430T12Z_MSC_GDPS_AbsoluteVorticity_IsbL-0700_LatLon0.15_PT069H.grib2 2026-04-30 16:10 1.3M
20260430T12Z_MSC_GDPS_AbsoluteVorticity_IsbL-0850_LatLon0.15_PT069H.grib2 2026-04-30 16:10 1.6M
20260430T12Z_MSC_GDPS_AirTemp_AGL-120m_LatLon0.15_PT069H.grib2 2026-04-30 16:10 905K
20260430T12Z_MSC_GDPS_AirTemp_AGL-2m_LatLon0.15_PT069H.grib2 2026-04-30 16:10 1.0M
20260430T12Z_MSC_GDPS_AirTemp_AGL-40m_LatLon0.15_PT069H.grib2 2026-04-30 16:10 807K
20260430T12Z_MSC_GDPS_AirTemp_AGL-80m_LatLon0.15_PT069H.grib2 2026-04-30 16:10 913K
20260430T12Z_MSC_GDPS_AirTemp_IsbL-0001_LatLon0.15_PT069H.grib2 2026-04-30 16:10 655K
20260430T12Z_MSC_GDPS_AirTemp_IsbL-0005_LatLon0.15_PT069H.grib2 2026-04-30 16:10 681K
20260430T12Z_MSC_GDPS_AirTemp_IsbL-0010_LatLon0.15_PT069H.grib2 2026-04-30 16:10 692K
20260430T12Z_MSC_GDPS_AirTemp_IsbL-0020_LatLon0.15_PT069H.grib2 2026-04-30 16:10 787K
20260430T12Z_MSC_GDPS_AirTemp_IsbL-0030_LatLon0.15_PT069H.grib2 2026-04-30 16:10 835K
20260430T12Z_MSC_GDPS_AirTemp_IsbL-0050_LatLon0.15_PT069H.grib2 2026-04-30 16:10 811K
20260430T12Z_MSC_GDPS_AirTemp_IsbL-0100_LatLon0.15_PT069H.grib2 2026-04-30 16:10 962K
20260430T12Z_MSC_GDPS_AirTemp_IsbL-0150_LatLon0.15_PT069H.grib2 2026-04-30 16:10 969K
20260430T12Z_MSC_GDPS_AirTemp_IsbL-0175_LatLon0.15_PT069H.grib2 2026-04-30 16:10 956K
20260430T12Z_MSC_GDPS_AirTemp_IsbL-0200_LatLon0.15_PT069H.grib2 2026-04-30 16:10 972K
20260430T12Z_MSC_GDPS_AirTemp_IsbL-0225_LatLon0.15_PT069H.grib2 2026-04-30 16:10 1.0M
20260430T12Z_MSC_GDPS_AirTemp_IsbL-0250_LatLon0.15_PT069H.grib2 2026-04-30 16:10 1.0M
20260430T12Z_MSC_GDPS_AirTemp_IsbL-0275_LatLon0.15_PT069H.grib2 2026-04-30 16:10 1.0M
20260430T12Z_MSC_GDPS_AirTemp_IsbL-0300_LatLon0.15_PT069H.grib2 2026-04-30 16:10 944K
20260430T12Z_MSC_GDPS_AirTemp_IsbL-0350_LatLon0.15_PT069H.grib2 2026-04-30 16:10 927K
20260430T12Z_MSC_GDPS_AirTemp_IsbL-0400_LatLon0.15_PT069H.grib2 2026-04-30 16:10 938K
20260430T12Z_MSC_GDPS_AirTemp_IsbL-0450_LatLon0.15_PT069H.grib2 2026-04-30 16:10 959K
20260430T12Z_MSC_GDPS_AirTemp_IsbL-0500_LatLon0.15_PT069H.grib2 2026-04-30 16:10 1.0M
20260430T12Z_MSC_GDPS_AirTemp_IsbL-0550_LatLon0.15_PT069H.grib2 2026-04-30 16:10 799K
20260430T12Z_MSC_GDPS_AirTemp_IsbL-0600_LatLon0.15_PT069H.grib2 2026-04-30 16:10 892K
20260430T12Z_MSC_GDPS_AirTemp_IsbL-0650_LatLon0.15_PT069H.grib2 2026-04-30 16:10 918K
20260430T12Z_MSC_GDPS_AirTemp_IsbL-0700_LatLon0.15_PT069H.grib2 2026-04-30 16:10 953K
20260430T12Z_MSC_GDPS_AirTemp_IsbL-0750_LatLon0.15_PT069H.grib2 2026-04-30 16:10 1.0M
20260430T12Z_MSC_GDPS_AirTemp_IsbL-0800_LatLon0.15_PT069H.grib2 2026-04-30 16:10 1.1M
20260430T12Z_MSC_GDPS_AirTemp_IsbL-0850_LatLon0.15_PT069H.grib2 2026-04-30 16:10 1.1M
20260430T12Z_MSC_GDPS_AirTemp_IsbL-0875_LatLon0.15_PT069H.grib2 2026-04-30 16:10 1.2M
20260430T12Z_MSC_GDPS_AirTemp_IsbL-0900_LatLon0.15_PT069H.grib2 2026-04-30 16:10 1.2M
20260430T12Z_MSC_GDPS_AirTemp_IsbL-0925_LatLon0.15_PT069H.grib2 2026-04-30 16:10 1.1M
20260430T12Z_MSC_GDPS_AirTemp_IsbL-0950_LatLon0.15_PT069H.grib2 2026-04-30 16:10 1.1M
20260430T12Z_MSC_GDPS_AirTemp_IsbL-0970_LatLon0.15_PT069H.grib2 2026-04-30 16:10 1.2M
20260430T12Z_MSC_GDPS_AirTemp_IsbL-0985_LatLon0.15_PT069H.grib2 2026-04-30 16:10 1.1M
20260430T12Z_MSC_GDPS_AirTemp_IsbL-1000_LatLon0.15_PT069H.grib2 2026-04-30 16:10 1.1M
20260430T12Z_MSC_GDPS_AirTemp_IsbL-1015_LatLon0.15_PT069H.grib2 2026-04-30 16:10 1.1M
20260430T12Z_MSC_GDPS_Albedo_Sfc_LatLon0.15_PT069H.grib2 2026-04-30 16:10 241K
20260430T12Z_MSC_GDPS_CAPE_Sfc_LatLon0.15_PT069H.grib2 2026-04-30 16:10 4.1M
20260430T12Z_MSC_GDPS_CIN_Sfc_LatLon0.15_PT069H.grib2 2026-04-30 16:10 3.0M
20260430T12Z_MSC_GDPS_CloudWater_EAtm_LatLon0.15_PT069H.grib2 2026-04-30 16:10 532K
20260430T12Z_MSC_GDPS_ConvectivePrecip-Accum_Sfc_LatLon0.15_PT069H.grib2 2026-04-30 16:10 3.0M
20260430T12Z_MSC_GDPS_DewPointDepression_AGL-2m_LatLon0.15_PT069H.grib2 2026-04-30 16:10 599K
20260430T12Z_MSC_GDPS_DewPointDepression_IsbL-0010_LatLon0.15_PT069H.grib2 2026-04-30 16:10 65K
20260430T12Z_MSC_GDPS_DewPointDepression_IsbL-0020_LatLon0.15_PT069H.grib2 2026-04-30 16:10 67K
20260430T12Z_MSC_GDPS_DewPointDepression_IsbL-0030_LatLon0.15_PT069H.grib2 2026-04-30 16:10 83K
20260430T12Z_MSC_GDPS_DewPointDepression_IsbL-0050_LatLon0.15_PT069H.grib2 2026-04-30 16:10 374K
20260430T12Z_MSC_GDPS_DewPointDepression_IsbL-0100_LatLon0.15_PT069H.grib2 2026-04-30 16:10 406K
20260430T12Z_MSC_GDPS_DewPointDepression_IsbL-0150_LatLon0.15_PT069H.grib2 2026-04-30 16:10 468K
20260430T12Z_MSC_GDPS_DewPointDepression_IsbL-0175_LatLon0.15_PT069H.grib2 2026-04-30 16:10 581K
20260430T12Z_MSC_GDPS_DewPointDepression_IsbL-0200_LatLon0.15_PT069H.grib2 2026-04-30 16:10 685K
20260430T12Z_MSC_GDPS_DewPointDepression_IsbL-0225_LatLon0.15_PT069H.grib2 2026-04-30 16:10 778K
20260430T12Z_MSC_GDPS_DewPointDepression_IsbL-0250_LatLon0.15_PT069H.grib2 2026-04-30 16:10 858K
20260430T12Z_MSC_GDPS_DewPointDepression_IsbL-0275_LatLon0.15_PT069H.grib2 2026-04-30 16:10 879K
20260430T12Z_MSC_GDPS_DewPointDepression_IsbL-0300_LatLon0.15_PT069H.grib2 2026-04-30 16:10 917K
20260430T12Z_MSC_GDPS_DewPointDepression_IsbL-0350_LatLon0.15_PT069H.grib2 2026-04-30 16:10 953K
20260430T12Z_MSC_GDPS_DewPointDepression_IsbL-0400_LatLon0.15_PT069H.grib2 2026-04-30 16:10 1.0M
20260430T12Z_MSC_GDPS_DewPointDepression_IsbL-0450_LatLon0.15_PT069H.grib2 2026-04-30 16:10 1.0M
20260430T12Z_MSC_GDPS_DewPointDepression_IsbL-0500_LatLon0.15_PT069H.grib2 2026-04-30 16:10 1.0M
20260430T12Z_MSC_GDPS_DewPointDepression_IsbL-0550_LatLon0.15_PT069H.grib2 2026-04-30 16:10 1.0M
20260430T12Z_MSC_GDPS_DewPointDepression_IsbL-0600_LatLon0.15_PT069H.grib2 2026-04-30 16:10 1.0M
20260430T12Z_MSC_GDPS_DewPointDepression_IsbL-0650_LatLon0.15_PT069H.grib2 2026-04-30 16:10 1.1M
20260430T12Z_MSC_GDPS_DewPointDepression_IsbL-0700_LatLon0.15_PT069H.grib2 2026-04-30 16:10 1.1M
20260430T12Z_MSC_GDPS_DewPointDepression_IsbL-0750_LatLon0.15_PT069H.grib2 2026-04-30 16:10 1.1M
20260430T12Z_MSC_GDPS_DewPointDepression_IsbL-0800_LatLon0.15_PT069H.grib2 2026-04-30 16:10 1.2M
20260430T12Z_MSC_GDPS_DewPointDepression_IsbL-0850_LatLon0.15_PT069H.grib2 2026-04-30 16:10 1.2M
20260430T12Z_MSC_GDPS_DewPointDepression_IsbL-0875_LatLon0.15_PT069H.grib2 2026-04-30 16:10 1.1M
20260430T12Z_MSC_GDPS_DewPointDepression_IsbL-0900_LatLon0.15_PT069H.grib2 2026-04-30 16:10 1.1M
20260430T12Z_MSC_GDPS_DewPointDepression_IsbL-0925_LatLon0.15_PT069H.grib2 2026-04-30 16:10 1.0M
20260430T12Z_MSC_GDPS_DewPointDepression_IsbL-0950_LatLon0.15_PT069H.grib2 2026-04-30 16:10 1.0M
20260430T12Z_MSC_GDPS_DewPointDepression_IsbL-0970_LatLon0.15_PT069H.grib2 2026-04-30 16:10 1.0M
20260430T12Z_MSC_GDPS_DewPointDepression_IsbL-0985_LatLon0.15_PT069H.grib2 2026-04-30 16:10 1.0M
20260430T12Z_MSC_GDPS_DewPointDepression_IsbL-1000_LatLon0.15_PT069H.grib2 2026-04-30 16:10 971K
20260430T12Z_MSC_GDPS_DewPointDepression_IsbL-1015_LatLon0.15_PT069H.grib2 2026-04-30 16:10 911K
20260430T12Z_MSC_GDPS_DewPoint_AGL-2m_LatLon0.15_PT069H.grib2 2026-04-30 16:10 611K
20260430T12Z_MSC_GDPS_DownwardLongwaveRadiationFlux-Accum_Sfc_LatLon0.15_PT069H.grib2 2026-04-30 16:10 900K
20260430T12Z_MSC_GDPS_DownwardShortwaveRadiationFlux-Accum_NTAtm_LatLon0.15_PT069H.grib2 2026-04-30 16:10 188K
20260430T12Z_MSC_GDPS_DownwardShortwaveRadiationFlux-Accum_Sfc_LatLon0.15_PT069H.grib2 2026-04-30 16:10 1.1M
20260430T12Z_MSC_GDPS_FreezingRain-Accum1h_Sfc_LatLon0.15_PT069H.grib2 2026-04-30 16:10 45K
20260430T12Z_MSC_GDPS_FreezingRain-Accum3h_Sfc_LatLon0.15_PT069H.grib2 2026-04-30 16:10 50K
20260430T12Z_MSC_GDPS_FreezingRain-Accum_Sfc_LatLon0.15_PT069H.grib2 2026-04-30 16:10 304K
20260430T12Z_MSC_GDPS_GeopotentialHeight_IsbL-0001_LatLon0.15_PT069H.grib2 2026-04-30 16:10 417K
20260430T12Z_MSC_GDPS_GeopotentialHeight_IsbL-0005_LatLon0.15_PT069H.grib2 2026-04-30 16:10 483K
20260430T12Z_MSC_GDPS_GeopotentialHeight_IsbL-0010_LatLon0.15_PT069H.grib2 2026-04-30 16:10 477K
20260430T12Z_MSC_GDPS_GeopotentialHeight_IsbL-0020_LatLon0.15_PT069H.grib2 2026-04-30 16:10 413K
20260430T12Z_MSC_GDPS_GeopotentialHeight_IsbL-0030_LatLon0.15_PT069H.grib2 2026-04-30 16:10 569K
20260430T12Z_MSC_GDPS_GeopotentialHeight_IsbL-0050_LatLon0.15_PT069H.grib2 2026-04-30 16:10 567K
20260430T12Z_MSC_GDPS_GeopotentialHeight_IsbL-0100_LatLon0.15_PT069H.grib2 2026-04-30 16:10 607K
20260430T12Z_MSC_GDPS_GeopotentialHeight_IsbL-0150_LatLon0.15_PT069H.grib2 2026-04-30 16:10 625K
20260430T12Z_MSC_GDPS_GeopotentialHeight_IsbL-0175_LatLon0.15_PT069H.grib2 2026-04-30 16:10 628K
20260430T12Z_MSC_GDPS_GeopotentialHeight_IsbL-0200_LatLon0.15_PT069H.grib2 2026-04-30 16:10 633K
20260430T12Z_MSC_GDPS_GeopotentialHeight_IsbL-0225_LatLon0.15_PT069H.grib2 2026-04-30 16:10 637K
20260430T12Z_MSC_GDPS_GeopotentialHeight_IsbL-0250_LatLon0.15_PT069H.grib2 2026-04-30 16:10 640K
20260430T12Z_MSC_GDPS_GeopotentialHeight_IsbL-0275_LatLon0.15_PT069H.grib2 2026-04-30 16:10 639K
20260430T12Z_MSC_GDPS_GeopotentialHeight_IsbL-0300_LatLon0.15_PT069H.grib2 2026-04-30 16:10 631K
20260430T12Z_MSC_GDPS_GeopotentialHeight_IsbL-0350_LatLon0.15_PT069H.grib2 2026-04-30 16:10 627K
20260430T12Z_MSC_GDPS_GeopotentialHeight_IsbL-0400_LatLon0.15_PT069H.grib2 2026-04-30 16:10 616K
20260430T12Z_MSC_GDPS_GeopotentialHeight_IsbL-0450_LatLon0.15_PT069H.grib2 2026-04-30 16:10 608K
20260430T12Z_MSC_GDPS_GeopotentialHeight_IsbL-0500_LatLon0.15_PT069H.grib2 2026-04-30 16:10 598K
20260430T12Z_MSC_GDPS_GeopotentialHeight_IsbL-0550_LatLon0.15_PT069H.grib2 2026-04-30 16:10 525K
20260430T12Z_MSC_GDPS_GeopotentialHeight_IsbL-0600_LatLon0.15_PT069H.grib2 2026-04-30 16:10 522K
20260430T12Z_MSC_GDPS_GeopotentialHeight_IsbL-0650_LatLon0.15_PT069H.grib2 2026-04-30 16:10 689K
20260430T12Z_MSC_GDPS_GeopotentialHeight_IsbL-0700_LatLon0.15_PT069H.grib2 2026-04-30 16:10 689K
20260430T12Z_MSC_GDPS_GeopotentialHeight_IsbL-0750_LatLon0.15_PT069H.grib2 2026-04-30 16:10 689K
20260430T12Z_MSC_GDPS_GeopotentialHeight_IsbL-0800_LatLon0.15_PT069H.grib2 2026-04-30 16:10 704K
20260430T12Z_MSC_GDPS_GeopotentialHeight_IsbL-0850_LatLon0.15_PT069H.grib2 2026-04-30 16:10 715K
20260430T12Z_MSC_GDPS_GeopotentialHeight_IsbL-0875_LatLon0.15_PT069H.grib2 2026-04-30 16:10 721K
20260430T12Z_MSC_GDPS_GeopotentialHeight_IsbL-0900_LatLon0.15_PT069H.grib2 2026-04-30 16:10 728K
20260430T12Z_MSC_GDPS_GeopotentialHeight_IsbL-0925_LatLon0.15_PT069H.grib2 2026-04-30 16:10 736K
20260430T12Z_MSC_GDPS_GeopotentialHeight_IsbL-0950_LatLon0.15_PT069H.grib2 2026-04-30 16:10 744K
20260430T12Z_MSC_GDPS_GeopotentialHeight_IsbL-0970_LatLon0.15_PT069H.grib2 2026-04-30 16:10 755K
20260430T12Z_MSC_GDPS_GeopotentialHeight_IsbL-0985_LatLon0.15_PT069H.grib2 2026-04-30 16:10 771K
20260430T12Z_MSC_GDPS_GeopotentialHeight_IsbL-1000_LatLon0.15_PT069H.grib2 2026-04-30 16:10 792K
20260430T12Z_MSC_GDPS_GeopotentialHeight_IsbL-1015_LatLon0.15_PT069H.grib2 2026-04-30 16:10 809K
20260430T12Z_MSC_GDPS_Humidex_Sfc_LatLon0.15_PT069H.grib2 2026-04-30 16:10 5.3M
20260430T12Z_MSC_GDPS_IcePellets-Accum1h_Sfc_LatLon0.15_PT069H.grib2 2026-04-30 16:10 4.1K
20260430T12Z_MSC_GDPS_IcePellets-Accum3h_Sfc_LatLon0.15_PT069H.grib2 2026-04-30 16:10 4.4K
20260430T12Z_MSC_GDPS_IcePellets-Accum_Sfc_LatLon0.15_PT069H.grib2 2026-04-30 16:10 65K
20260430T12Z_MSC_GDPS_KIndex_Sfc_LatLon0.15_PT069H.grib2 2026-04-30 16:10 6.5M
20260430T12Z_MSC_GDPS_LatentHeatNetFlux_Sfc_LatLon0.15_PT069H.grib2 2026-04-30 16:10 733K
20260430T12Z_MSC_GDPS_LiftedIndex-MU-VT_IsbL-0500_LatLon0.15_PT069H.grib2 2026-04-30 16:10 5.4M
20260430T12Z_MSC_GDPS_NetLongwaveRadiationFlux-Accum_Sfc_LatLon0.15_PT069H.grib2 2026-04-30 16:10 963K
20260430T12Z_MSC_GDPS_NetShortwaveRadiationFlux-Accum_Sfc_LatLon0.15_PT069H.grib2 2026-04-30 16:10 1.1M
20260430T12Z_MSC_GDPS_O3MixingRatio_Sfc_LatLon0.15_PT069H.grib2 2026-04-30 16:44 1.9M
20260430T12Z_MSC_GDPS_O3_EAtm_LatLon0.15_PT069H.grib2 2026-04-30 16:44 2.4M
20260430T12Z_MSC_GDPS_PlanetaryBoundaryLayerHeight_Sfc_LatLon0.15_PT069H.grib2 2026-04-30 16:10 2.5M
20260430T12Z_MSC_GDPS_Precip-Accum1h_Sfc_LatLon0.15_PT069H.grib2 2026-04-30 16:10 3.2M
20260430T12Z_MSC_GDPS_Precip-Accum3h_Sfc_LatLon0.15_PT069H.grib2 2026-04-30 16:10 3.5M
20260430T12Z_MSC_GDPS_Precip-Accum_Sfc_LatLon0.15_PT069H.grib2 2026-04-30 16:10 5.1M
20260430T12Z_MSC_GDPS_PrecipRate_Sfc_LatLon0.15_PT069H.grib2 2026-04-30 16:10 3.0M
20260430T12Z_MSC_GDPS_PrecipType-Instant_Sfc_LatLon0.15_PT069H.grib2 2026-04-30 16:10 1.6M
20260430T12Z_MSC_GDPS_Pressure_MSL_LatLon0.15_PT069H.grib2 2026-04-30 16:10 832K
20260430T12Z_MSC_GDPS_Pressure_PVU-1.5_LatLon0.15_PT069H.grib2 2026-04-30 16:10 5.8M
20260430T12Z_MSC_GDPS_Pressure_PVU-1_LatLon0.15_PT069H.grib2 2026-04-30 16:10 6.0M
20260430T12Z_MSC_GDPS_Pressure_PVU-2_LatLon0.15_PT069H.grib2 2026-04-30 16:10 5.6M
20260430T12Z_MSC_GDPS_Pressure_Sfc_LatLon0.15_PT069H.grib2 2026-04-30 16:10 1.1M
20260430T12Z_MSC_GDPS_RadiativeTemp_Sfc_LatLon0.15_PT069H.grib2 2026-04-30 16:10 505K
20260430T12Z_MSC_GDPS_Rain-Accum1h_Sfc_LatLon0.15_PT069H.grib2 2026-04-30 16:10 1.6M
20260430T12Z_MSC_GDPS_Rain-Accum3h_Sfc_LatLon0.15_PT069H.grib2 2026-04-30 16:10 1.8M
20260430T12Z_MSC_GDPS_Rain-Accum_Sfc_LatLon0.15_PT069H.grib2 2026-04-30 16:10 3.9M
20260430T12Z_MSC_GDPS_RelativeHumidity_AGL-2m_LatLon0.15_PT069H.grib2 2026-04-30 16:10 1.1M
20260430T12Z_MSC_GDPS_RelativeHumidity_IsbL-0010_LatLon0.15_PT069H.grib2 2026-04-30 16:10 198K
20260430T12Z_MSC_GDPS_RelativeHumidity_IsbL-0020_LatLon0.15_PT069H.grib2 2026-04-30 16:10 168K
20260430T12Z_MSC_GDPS_RelativeHumidity_IsbL-0030_LatLon0.15_PT069H.grib2 2026-04-30 16:10 269K
20260430T12Z_MSC_GDPS_RelativeHumidity_IsbL-0050_LatLon0.15_PT069H.grib2 2026-04-30 16:10 422K
20260430T12Z_MSC_GDPS_RelativeHumidity_IsbL-0100_LatLon0.15_PT069H.grib2 2026-04-30 16:10 518K
20260430T12Z_MSC_GDPS_RelativeHumidity_IsbL-0150_LatLon0.15_PT069H.grib2 2026-04-30 16:10 660K
20260430T12Z_MSC_GDPS_RelativeHumidity_IsbL-0175_LatLon0.15_PT069H.grib2 2026-04-30 16:10 788K
20260430T12Z_MSC_GDPS_RelativeHumidity_IsbL-0200_LatLon0.15_PT069H.grib2 2026-04-30 16:10 705K
20260430T12Z_MSC_GDPS_RelativeHumidity_IsbL-0225_LatLon0.15_PT069H.grib2 2026-04-30 16:10 787K
20260430T12Z_MSC_GDPS_RelativeHumidity_IsbL-0250_LatLon0.15_PT069H.grib2 2026-04-30 16:10 862K
20260430T12Z_MSC_GDPS_RelativeHumidity_IsbL-0275_LatLon0.15_PT069H.grib2 2026-04-30 16:10 882K
20260430T12Z_MSC_GDPS_RelativeHumidity_IsbL-0300_LatLon0.15_PT069H.grib2 2026-04-30 16:10 923K
20260430T12Z_MSC_GDPS_RelativeHumidity_IsbL-0350_LatLon0.15_PT069H.grib2 2026-04-30 16:10 948K
20260430T12Z_MSC_GDPS_RelativeHumidity_IsbL-0400_LatLon0.15_PT069H.grib2 2026-04-30 16:10 971K
20260430T12Z_MSC_GDPS_RelativeHumidity_IsbL-0450_LatLon0.15_PT069H.grib2 2026-04-30 16:10 1.0M
20260430T12Z_MSC_GDPS_RelativeHumidity_IsbL-0500_LatLon0.15_PT069H.grib2 2026-04-30 16:10 1.0M
20260430T12Z_MSC_GDPS_RelativeHumidity_IsbL-0550_LatLon0.15_PT069H.grib2 2026-04-30 16:10 1.1M
20260430T12Z_MSC_GDPS_RelativeHumidity_IsbL-0600_LatLon0.15_PT069H.grib2 2026-04-30 16:10 1.0M
20260430T12Z_MSC_GDPS_RelativeHumidity_IsbL-0650_LatLon0.15_PT069H.grib2 2026-04-30 16:10 1.1M
20260430T12Z_MSC_GDPS_RelativeHumidity_IsbL-0700_LatLon0.15_PT069H.grib2 2026-04-30 16:10 1.1M
20260430T12Z_MSC_GDPS_RelativeHumidity_IsbL-0750_LatLon0.15_PT069H.grib2 2026-04-30 16:10 1.2M
20260430T12Z_MSC_GDPS_RelativeHumidity_IsbL-0800_LatLon0.15_PT069H.grib2 2026-04-30 16:10 1.3M
20260430T12Z_MSC_GDPS_RelativeHumidity_IsbL-0850_LatLon0.15_PT069H.grib2 2026-04-30 16:10 1.3M
20260430T12Z_MSC_GDPS_RelativeHumidity_IsbL-0875_LatLon0.15_PT069H.grib2 2026-04-30 16:10 1.3M
20260430T12Z_MSC_GDPS_RelativeHumidity_IsbL-0900_LatLon0.15_PT069H.grib2 2026-04-30 16:10 1.3M
20260430T12Z_MSC_GDPS_RelativeHumidity_IsbL-0925_LatLon0.15_PT069H.grib2 2026-04-30 16:10 1.2M
20260430T12Z_MSC_GDPS_RelativeHumidity_IsbL-0950_LatLon0.15_PT069H.grib2 2026-04-30 16:10 1.2M
20260430T12Z_MSC_GDPS_RelativeHumidity_IsbL-0970_LatLon0.15_PT069H.grib2 2026-04-30 16:10 1.2M
20260430T12Z_MSC_GDPS_RelativeHumidity_IsbL-0985_LatLon0.15_PT069H.grib2 2026-04-30 16:10 1.2M
20260430T12Z_MSC_GDPS_RelativeHumidity_IsbL-1000_LatLon0.15_PT069H.grib2 2026-04-30 16:10 1.1M
20260430T12Z_MSC_GDPS_RelativeHumidity_IsbL-1015_LatLon0.15_PT069H.grib2 2026-04-30 16:10 1.0M
20260430T12Z_MSC_GDPS_RelativeVorticity_IsbL-0200_LatLon0.15_PT069H.grib2 2026-04-30 16:10 1.5M
20260430T12Z_MSC_GDPS_RelativeVorticity_IsbL-0250_LatLon0.15_PT069H.grib2 2026-04-30 16:10 1.6M
20260430T12Z_MSC_GDPS_RelativeVorticity_IsbL-0500_LatLon0.15_PT069H.grib2 2026-04-30 16:10 1.4M
20260430T12Z_MSC_GDPS_RelativeVorticity_IsbL-0700_LatLon0.15_PT069H.grib2 2026-04-30 16:10 1.6M
20260430T12Z_MSC_GDPS_RelativeVorticity_IsbL-0850_LatLon0.15_PT069H.grib2 2026-04-30 16:10 1.6M
20260430T12Z_MSC_GDPS_Runoff-Accum_Sfc_LatLon0.15_PT069H.grib2 2026-04-30 16:10 150K
20260430T12Z_MSC_GDPS_SensibleHeatNetFlux_Sfc_LatLon0.15_PT069H.grib2 2026-04-30 16:10 667K
20260430T12Z_MSC_GDPS_ShowalterIndex_IsbL-0500_LatLon0.15_PT069H.grib2 2026-04-30 16:10 6.2M
20260430T12Z_MSC_GDPS_Snow-Accum1h_Sfc_LatLon0.15_PT069H.grib2 2026-04-30 16:10 1.1M
20260430T12Z_MSC_GDPS_Snow-Accum3h_Sfc_LatLon0.15_PT069H.grib2 2026-04-30 16:10 1.0M
20260430T12Z_MSC_GDPS_Snow-Accum_Sfc_LatLon0.15_PT069H.grib2 2026-04-30 16:10 1.9M
20260430T12Z_MSC_GDPS_SnowDensity_Sfc_LatLon0.15_PT069H.grib2 2026-04-30 16:10 263K
20260430T12Z_MSC_GDPS_SnowDepth_Sfc_LatLon0.15_PT069H.grib2 2026-04-30 16:10 1.7M
20260430T12Z_MSC_GDPS_SoilTemp_DBS-0to10cm_LatLon0.15_PT069H.grib2 2026-04-30 16:10 508K
20260430T12Z_MSC_GDPS_SoilTemp_Sfc_LatLon0.15_PT069H.grib2 2026-04-30 16:10 583K
20260430T12Z_MSC_GDPS_SoilVolumetricIceContent_Sfc_LatLon0.15_PT069H.grib2 2026-04-30 16:10 199K
20260430T12Z_MSC_GDPS_SoilVolumetricWaterContent_DBS-0to10cm_LatLon0.15_PT069H.grib2 2026-04-30 16:10 588K
20260430T12Z_MSC_GDPS_SoilVolumetricWaterContent_DBS-0to1cm_LatLon0.15_PT069H.grib2 2026-04-30 16:10 652K
20260430T12Z_MSC_GDPS_SpecificHumidity_AGL-120m_LatLon0.15_PT069H.grib2 2026-04-30 16:10 1.1M
20260430T12Z_MSC_GDPS_SpecificHumidity_AGL-2m_LatLon0.15_PT069H.grib2 2026-04-30 16:10 1.2M
20260430T12Z_MSC_GDPS_SpecificHumidity_AGL-40m_LatLon0.15_PT069H.grib2 2026-04-30 16:10 1.1M
20260430T12Z_MSC_GDPS_SpecificHumidity_AGL-80m_LatLon0.15_PT069H.grib2 2026-04-30 16:10 1.1M
20260430T12Z_MSC_GDPS_SpecificHumidity_IsbL-0001_LatLon0.15_PT069H.grib2 2026-04-30 16:10 1.3M
20260430T12Z_MSC_GDPS_SpecificHumidity_IsbL-0005_LatLon0.15_PT069H.grib2 2026-04-30 16:10 1.2M
20260430T12Z_MSC_GDPS_SpecificHumidity_IsbL-0010_LatLon0.15_PT069H.grib2 2026-04-30 16:10 1.3M
20260430T12Z_MSC_GDPS_SpecificHumidity_IsbL-0020_LatLon0.15_PT069H.grib2 2026-04-30 16:10 1.4M
20260430T12Z_MSC_GDPS_SpecificHumidity_IsbL-0030_LatLon0.15_PT069H.grib2 2026-04-30 16:10 1.3M
20260430T12Z_MSC_GDPS_SpecificHumidity_IsbL-0050_LatLon0.15_PT069H.grib2 2026-04-30 16:10 1.7M
20260430T12Z_MSC_GDPS_SpecificHumidity_IsbL-0100_LatLon0.15_PT069H.grib2 2026-04-30 16:10 1.3M
20260430T12Z_MSC_GDPS_SpecificHumidity_IsbL-0150_LatLon0.15_PT069H.grib2 2026-04-30 16:10 1.3M
20260430T12Z_MSC_GDPS_SpecificHumidity_IsbL-0175_LatLon0.15_PT069H.grib2 2026-04-30 16:10 1.3M
20260430T12Z_MSC_GDPS_SpecificHumidity_IsbL-0200_LatLon0.15_PT069H.grib2 2026-04-30 16:10 1.3M
20260430T12Z_MSC_GDPS_SpecificHumidity_IsbL-0225_LatLon0.15_PT069H.grib2 2026-04-30 16:10 1.3M
20260430T12Z_MSC_GDPS_SpecificHumidity_IsbL-0250_LatLon0.15_PT069H.grib2 2026-04-30 16:10 1.4M
20260430T12Z_MSC_GDPS_SpecificHumidity_IsbL-0275_LatLon0.15_PT069H.grib2 2026-04-30 16:10 1.3M
20260430T12Z_MSC_GDPS_SpecificHumidity_IsbL-0300_LatLon0.15_PT069H.grib2 2026-04-30 16:10 1.2M
20260430T12Z_MSC_GDPS_SpecificHumidity_IsbL-0350_LatLon0.15_PT069H.grib2 2026-04-30 16:10 1.2M
20260430T12Z_MSC_GDPS_SpecificHumidity_IsbL-0400_LatLon0.15_PT069H.grib2 2026-04-30 16:10 1.5M
20260430T12Z_MSC_GDPS_SpecificHumidity_IsbL-0450_LatLon0.15_PT069H.grib2 2026-04-30 16:10 1.6M
20260430T12Z_MSC_GDPS_SpecificHumidity_IsbL-0500_LatLon0.15_PT069H.grib2 2026-04-30 16:10 1.4M
20260430T12Z_MSC_GDPS_SpecificHumidity_IsbL-0550_LatLon0.15_PT069H.grib2 2026-04-30 16:10 1.6M
20260430T12Z_MSC_GDPS_SpecificHumidity_IsbL-0600_LatLon0.15_PT069H.grib2 2026-04-30 16:10 1.7M
20260430T12Z_MSC_GDPS_SpecificHumidity_IsbL-0650_LatLon0.15_PT069H.grib2 2026-04-30 16:10 1.5M
20260430T12Z_MSC_GDPS_SpecificHumidity_IsbL-0700_LatLon0.15_PT069H.grib2 2026-04-30 16:10 1.6M
20260430T12Z_MSC_GDPS_SpecificHumidity_IsbL-0750_LatLon0.15_PT069H.grib2 2026-04-30 16:10 1.7M
20260430T12Z_MSC_GDPS_SpecificHumidity_IsbL-0800_LatLon0.15_PT069H.grib2 2026-04-30 16:10 1.9M
20260430T12Z_MSC_GDPS_SpecificHumidity_IsbL-0850_LatLon0.15_PT069H.grib2 2026-04-30 16:10 1.9M
20260430T12Z_MSC_GDPS_SpecificHumidity_IsbL-0875_LatLon0.15_PT069H.grib2 2026-04-30 16:10 1.9M
20260430T12Z_MSC_GDPS_SpecificHumidity_IsbL-0900_LatLon0.15_PT069H.grib2 2026-04-30 16:10 1.6M
20260430T12Z_MSC_GDPS_SpecificHumidity_IsbL-0925_LatLon0.15_PT069H.grib2 2026-04-30 16:10 1.6M
20260430T12Z_MSC_GDPS_SpecificHumidity_IsbL-0950_LatLon0.15_PT069H.grib2 2026-04-30 16:10 1.6M
20260430T12Z_MSC_GDPS_SpecificHumidity_IsbL-0970_LatLon0.15_PT069H.grib2 2026-04-30 16:10 1.6M
20260430T12Z_MSC_GDPS_SpecificHumidity_IsbL-0985_LatLon0.15_PT069H.grib2 2026-04-30 16:10 1.5M
20260430T12Z_MSC_GDPS_SpecificHumidity_IsbL-1000_LatLon0.15_PT069H.grib2 2026-04-30 16:10 1.5M
20260430T12Z_MSC_GDPS_SpecificHumidity_IsbL-1015_LatLon0.15_PT069H.grib2 2026-04-30 16:10 1.5M
20260430T12Z_MSC_GDPS_SpecificHumidity_Sfc_LatLon0.15_PT069H.grib2 2026-04-30 16:10 679K
20260430T12Z_MSC_GDPS_Thickness_IsbL-0850to0700_LatLon0.15_PT069H.grib2 2026-04-30 16:10 467K
20260430T12Z_MSC_GDPS_Thickness_IsbL-1000to0500_LatLon0.15_PT069H.grib2 2026-04-30 16:10 373K
20260430T12Z_MSC_GDPS_Thickness_IsbL-1000to0850_LatLon0.15_PT069H.grib2 2026-04-30 16:10 493K
20260430T12Z_MSC_GDPS_TotalCloudCover_Sfc_LatLon0.15_PT069H.grib2 2026-04-30 16:10 824K
20260430T12Z_MSC_GDPS_TotalTotalsIndex_Sfc_LatLon0.15_PT069H.grib2 2026-04-30 16:10 6.2M
20260430T12Z_MSC_GDPS_UVIndex-ClearSky_Sfc_LatLon0.15_PT069H.grib2 2026-04-30 16:44 1.1M
20260430T12Z_MSC_GDPS_UVIndex_Sfc_LatLon0.15_PT069H.grib2 2026-04-30 16:44 1.4M
20260430T12Z_MSC_GDPS_UpwardLongwaveRadiationFlux_NTAtm_LatLon0.15_PT069H.grib2 2026-04-30 16:10 846K
20260430T12Z_MSC_GDPS_VerticalVelocity_IsbL-0200_LatLon0.15_PT069H.grib2 2026-04-30 16:10 1.2M
20260430T12Z_MSC_GDPS_VerticalVelocity_IsbL-0250_LatLon0.15_PT069H.grib2 2026-04-30 16:10 1.0M
20260430T12Z_MSC_GDPS_VerticalVelocity_IsbL-0500_LatLon0.15_PT069H.grib2 2026-04-30 16:10 1.3M
20260430T12Z_MSC_GDPS_VerticalVelocity_IsbL-0600_LatLon0.15_PT069H.grib2 2026-04-30 16:10 1.3M
20260430T12Z_MSC_GDPS_VerticalVelocity_IsbL-0700_LatLon0.15_PT069H.grib2 2026-04-30 16:10 1.4M
20260430T12Z_MSC_GDPS_VerticalVelocity_IsbL-0850_LatLon0.15_PT069H.grib2 2026-04-30 16:10 1.6M
20260430T12Z_MSC_GDPS_WindChill_Sfc_LatLon0.15_PT069H.grib2 2026-04-30 16:10 5.3M
20260430T12Z_MSC_GDPS_WindDir_AGL-10m_LatLon0.15_PT069H.grib2 2026-04-30 16:10 1.3M
20260430T12Z_MSC_GDPS_WindDir_AGL-120m_LatLon0.15_PT069H.grib2 2026-04-30 16:10 1.3M
20260430T12Z_MSC_GDPS_WindDir_AGL-40m_LatLon0.15_PT069H.grib2 2026-04-30 16:10 1.4M
20260430T12Z_MSC_GDPS_WindDir_AGL-80m_LatLon0.15_PT069H.grib2 2026-04-30 16:10 1.3M
20260430T12Z_MSC_GDPS_WindDir_IsbL-0001_LatLon0.15_PT069H.grib2 2026-04-30 16:10 682K
20260430T12Z_MSC_GDPS_WindDir_IsbL-0005_LatLon0.15_PT069H.grib2 2026-04-30 16:10 809K
20260430T12Z_MSC_GDPS_WindDir_IsbL-0010_LatLon0.15_PT069H.grib2 2026-04-30 16:10 860K
20260430T12Z_MSC_GDPS_WindDir_IsbL-0020_LatLon0.15_PT069H.grib2 2026-04-30 16:10 965K
20260430T12Z_MSC_GDPS_WindDir_IsbL-0030_LatLon0.15_PT069H.grib2 2026-04-30 16:10 937K
20260430T12Z_MSC_GDPS_WindDir_IsbL-0050_LatLon0.15_PT069H.grib2 2026-04-30 16:10 947K
20260430T12Z_MSC_GDPS_WindDir_IsbL-0100_LatLon0.15_PT069H.grib2 2026-04-30 16:10 1.0M
20260430T12Z_MSC_GDPS_WindDir_IsbL-0150_LatLon0.15_PT069H.grib2 2026-04-30 16:10 1.0M
20260430T12Z_MSC_GDPS_WindDir_IsbL-0175_LatLon0.15_PT069H.grib2 2026-04-30 16:10 1.0M
20260430T12Z_MSC_GDPS_WindDir_IsbL-0200_LatLon0.15_PT069H.grib2 2026-04-30 16:10 1.1M
20260430T12Z_MSC_GDPS_WindDir_IsbL-0225_LatLon0.15_PT069H.grib2 2026-04-30 16:10 1.1M
20260430T12Z_MSC_GDPS_WindDir_IsbL-0250_LatLon0.15_PT069H.grib2 2026-04-30 16:10 1.1M
20260430T12Z_MSC_GDPS_WindDir_IsbL-0275_LatLon0.15_PT069H.grib2 2026-04-30 16:10 1.2M
20260430T12Z_MSC_GDPS_WindDir_IsbL-0300_LatLon0.15_PT069H.grib2 2026-04-30 16:10 1.2M
20260430T12Z_MSC_GDPS_WindDir_IsbL-0350_LatLon0.15_PT069H.grib2 2026-04-30 16:10 1.2M
20260430T12Z_MSC_GDPS_WindDir_IsbL-0400_LatLon0.15_PT069H.grib2 2026-04-30 16:10 1.3M
20260430T12Z_MSC_GDPS_WindDir_IsbL-0450_LatLon0.15_PT069H.grib2 2026-04-30 16:10 1.3M
20260430T12Z_MSC_GDPS_WindDir_IsbL-0500_LatLon0.15_PT069H.grib2 2026-04-30 16:10 1.3M
20260430T12Z_MSC_GDPS_WindDir_IsbL-0550_LatLon0.15_PT069H.grib2 2026-04-30 16:10 1.4M
20260430T12Z_MSC_GDPS_WindDir_IsbL-0600_LatLon0.15_PT069H.grib2 2026-04-30 16:10 1.4M
20260430T12Z_MSC_GDPS_WindDir_IsbL-0650_LatLon0.15_PT069H.grib2 2026-04-30 16:10 1.5M
20260430T12Z_MSC_GDPS_WindDir_IsbL-0700_LatLon0.15_PT069H.grib2 2026-04-30 16:10 1.6M
20260430T12Z_MSC_GDPS_WindDir_IsbL-0750_LatLon0.15_PT069H.grib2 2026-04-30 16:10 1.7M
20260430T12Z_MSC_GDPS_WindDir_IsbL-0800_LatLon0.15_PT069H.grib2 2026-04-30 16:10 1.8M
20260430T12Z_MSC_GDPS_WindDir_IsbL-0850_LatLon0.15_PT069H.grib2 2026-04-30 16:10 1.9M
20260430T12Z_MSC_GDPS_WindDir_IsbL-0875_LatLon0.15_PT069H.grib2 2026-04-30 16:10 1.9M
20260430T12Z_MSC_GDPS_WindDir_IsbL-0900_LatLon0.15_PT069H.grib2 2026-04-30 16:10 2.0M
20260430T12Z_MSC_GDPS_WindDir_IsbL-0925_LatLon0.15_PT069H.grib2 2026-04-30 16:10 2.0M
20260430T12Z_MSC_GDPS_WindDir_IsbL-0950_LatLon0.15_PT069H.grib2 2026-04-30 16:10 2.0M
20260430T12Z_MSC_GDPS_WindDir_IsbL-0970_LatLon0.15_PT069H.grib2 2026-04-30 16:10 2.0M
20260430T12Z_MSC_GDPS_WindDir_IsbL-0985_LatLon0.15_PT069H.grib2 2026-04-30 16:10 2.0M
20260430T12Z_MSC_GDPS_WindDir_IsbL-1000_LatLon0.15_PT069H.grib2 2026-04-30 16:10 2.0M
20260430T12Z_MSC_GDPS_WindDir_IsbL-1015_LatLon0.15_PT069H.grib2 2026-04-30 16:10 2.0M
20260430T12Z_MSC_GDPS_WindGust-Max_AGL-10m_LatLon0.15_PT069H.grib2 2026-04-30 16:10 1.8M
20260430T12Z_MSC_GDPS_WindGust-Min_AGL-10m_LatLon0.15_PT069H.grib2 2026-04-30 16:10 2.1M
20260430T12Z_MSC_GDPS_WindGust_AGL-10m_LatLon0.15_PT069H.grib2 2026-04-30 16:10 2.1M
20260430T12Z_MSC_GDPS_WindSpeed_AGL-10m_LatLon0.15_PT069H.grib2 2026-04-30 16:10 1.1M
20260430T12Z_MSC_GDPS_WindSpeed_AGL-120m_LatLon0.15_PT069H.grib2 2026-04-30 16:10 1.2M
20260430T12Z_MSC_GDPS_WindSpeed_AGL-40m_LatLon0.15_PT069H.grib2 2026-04-30 16:10 1.2M
20260430T12Z_MSC_GDPS_WindSpeed_AGL-80m_LatLon0.15_PT069H.grib2 2026-04-30 16:10 1.2M
20260430T12Z_MSC_GDPS_WindSpeed_IsbL-0001_LatLon0.15_PT069H.grib2 2026-04-30 16:10 638K
20260430T12Z_MSC_GDPS_WindSpeed_IsbL-0005_LatLon0.15_PT069H.grib2 2026-04-30 16:10 691K
20260430T12Z_MSC_GDPS_WindSpeed_IsbL-0010_LatLon0.15_PT069H.grib2 2026-04-30 16:10 626K
20260430T12Z_MSC_GDPS_WindSpeed_IsbL-0020_LatLon0.15_PT069H.grib2 2026-04-30 16:10 668K
20260430T12Z_MSC_GDPS_WindSpeed_IsbL-0030_LatLon0.15_PT069H.grib2 2026-04-30 16:10 865K
20260430T12Z_MSC_GDPS_WindSpeed_IsbL-0050_LatLon0.15_PT069H.grib2 2026-04-30 16:10 906K
20260430T12Z_MSC_GDPS_WindSpeed_IsbL-0100_LatLon0.15_PT069H.grib2 2026-04-30 16:10 1.1M
20260430T12Z_MSC_GDPS_WindSpeed_IsbL-0150_LatLon0.15_PT069H.grib2 2026-04-30 16:10 946K
20260430T12Z_MSC_GDPS_WindSpeed_IsbL-0175_LatLon0.15_PT069H.grib2 2026-04-30 16:10 1.0M
20260430T12Z_MSC_GDPS_WindSpeed_IsbL-0200_LatLon0.15_PT069H.grib2 2026-04-30 16:10 1.1M
20260430T12Z_MSC_GDPS_WindSpeed_IsbL-0225_LatLon0.15_PT069H.grib2 2026-04-30 16:10 1.1M
20260430T12Z_MSC_GDPS_WindSpeed_IsbL-0250_LatLon0.15_PT069H.grib2 2026-04-30 16:10 1.1M
20260430T12Z_MSC_GDPS_WindSpeed_IsbL-0275_LatLon0.15_PT069H.grib2 2026-04-30 16:10 1.1M
20260430T12Z_MSC_GDPS_WindSpeed_IsbL-0300_LatLon0.15_PT069H.grib2 2026-04-30 16:10 1.1M
20260430T12Z_MSC_GDPS_WindSpeed_IsbL-0350_LatLon0.15_PT069H.grib2 2026-04-30 16:10 1.1M
20260430T12Z_MSC_GDPS_WindSpeed_IsbL-0400_LatLon0.15_PT069H.grib2 2026-04-30 16:10 1.1M
20260430T12Z_MSC_GDPS_WindSpeed_IsbL-0450_LatLon0.15_PT069H.grib2 2026-04-30 16:10 1.1M
20260430T12Z_MSC_GDPS_WindSpeed_IsbL-0500_LatLon0.15_PT069H.grib2 2026-04-30 16:10 1.1M
20260430T12Z_MSC_GDPS_WindSpeed_IsbL-0550_LatLon0.15_PT069H.grib2 2026-04-30 16:10 1.1M
20260430T12Z_MSC_GDPS_WindSpeed_IsbL-0600_LatLon0.15_PT069H.grib2 2026-04-30 16:10 1.4M
20260430T12Z_MSC_GDPS_WindSpeed_IsbL-0650_LatLon0.15_PT069H.grib2 2026-04-30 16:10 1.4M
20260430T12Z_MSC_GDPS_WindSpeed_IsbL-0700_LatLon0.15_PT069H.grib2 2026-04-30 16:10 1.5M
20260430T12Z_MSC_GDPS_WindSpeed_IsbL-0750_LatLon0.15_PT069H.grib2 2026-04-30 16:10 1.3M
20260430T12Z_MSC_GDPS_WindSpeed_IsbL-0800_LatLon0.15_PT069H.grib2 2026-04-30 16:10 1.4M
20260430T12Z_MSC_GDPS_WindSpeed_IsbL-0850_LatLon0.15_PT069H.grib2 2026-04-30 16:10 1.4M
20260430T12Z_MSC_GDPS_WindSpeed_IsbL-0875_LatLon0.15_PT069H.grib2 2026-04-30 16:10 1.8M
20260430T12Z_MSC_GDPS_WindSpeed_IsbL-0900_LatLon0.15_PT069H.grib2 2026-04-30 16:10 1.8M
20260430T12Z_MSC_GDPS_WindSpeed_IsbL-0925_LatLon0.15_PT069H.grib2 2026-04-30 16:10 1.8M
20260430T12Z_MSC_GDPS_WindSpeed_IsbL-0950_LatLon0.15_PT069H.grib2 2026-04-30 16:10 1.8M
20260430T12Z_MSC_GDPS_WindSpeed_IsbL-0970_LatLon0.15_PT069H.grib2 2026-04-30 16:10 1.9M
20260430T12Z_MSC_GDPS_WindSpeed_IsbL-0985_LatLon0.15_PT069H.grib2 2026-04-30 16:10 1.9M
20260430T12Z_MSC_GDPS_WindSpeed_IsbL-1000_LatLon0.15_PT069H.grib2 2026-04-30 16:10 1.8M
20260430T12Z_MSC_GDPS_WindSpeed_IsbL-1015_LatLon0.15_PT069H.grib2 2026-04-30 16:10 1.8M
20260430T12Z_MSC_GDPS_WindU_AGL-10m_LatLon0.15_PT069H.grib2 2026-04-30 16:10 1.3M
20260430T12Z_MSC_GDPS_WindU_AGL-120m_LatLon0.15_PT069H.grib2 2026-04-30 16:10 1.0M
20260430T12Z_MSC_GDPS_WindU_AGL-40m_LatLon0.15_PT069H.grib2 2026-04-30 16:10 966K
20260430T12Z_MSC_GDPS_WindU_AGL-80m_LatLon0.15_PT069H.grib2 2026-04-30 16:10 1.0M
20260430T12Z_MSC_GDPS_WindU_IsbL-0001_LatLon0.15_PT069H.grib2 2026-04-30 16:10 498K
20260430T12Z_MSC_GDPS_WindU_IsbL-0005_LatLon0.15_PT069H.grib2 2026-04-30 16:10 689K
20260430T12Z_MSC_GDPS_WindU_IsbL-0010_LatLon0.15_PT069H.grib2 2026-04-30 16:10 700K
20260430T12Z_MSC_GDPS_WindU_IsbL-0020_LatLon0.15_PT069H.grib2 2026-04-30 16:10 732K
20260430T12Z_MSC_GDPS_WindU_IsbL-0030_LatLon0.15_PT069H.grib2 2026-04-30 16:10 739K
20260430T12Z_MSC_GDPS_WindU_IsbL-0050_LatLon0.15_PT069H.grib2 2026-04-30 16:10 767K
20260430T12Z_MSC_GDPS_WindU_IsbL-0100_LatLon0.15_PT069H.grib2 2026-04-30 16:10 921K
20260430T12Z_MSC_GDPS_WindU_IsbL-0150_LatLon0.15_PT069H.grib2 2026-04-30 16:10 1.0M
20260430T12Z_MSC_GDPS_WindU_IsbL-0175_LatLon0.15_PT069H.grib2 2026-04-30 16:10 1.0M
20260430T12Z_MSC_GDPS_WindU_IsbL-0200_LatLon0.15_PT069H.grib2 2026-04-30 16:10 837K
20260430T12Z_MSC_GDPS_WindU_IsbL-0225_LatLon0.15_PT069H.grib2 2026-04-30 16:10 850K
20260430T12Z_MSC_GDPS_WindU_IsbL-0250_LatLon0.15_PT069H.grib2 2026-04-30 16:10 855K
20260430T12Z_MSC_GDPS_WindU_IsbL-0275_LatLon0.15_PT069H.grib2 2026-04-30 16:10 882K
20260430T12Z_MSC_GDPS_WindU_IsbL-0300_LatLon0.15_PT069H.grib2 2026-04-30 16:10 873K
20260430T12Z_MSC_GDPS_WindU_IsbL-0350_LatLon0.15_PT069H.grib2 2026-04-30 16:10 886K
20260430T12Z_MSC_GDPS_WindU_IsbL-0400_LatLon0.15_PT069H.grib2 2026-04-30 16:10 1.1M
20260430T12Z_MSC_GDPS_WindU_IsbL-0450_LatLon0.15_PT069H.grib2 2026-04-30 16:10 1.1M
20260430T12Z_MSC_GDPS_WindU_IsbL-0500_LatLon0.15_PT069H.grib2 2026-04-30 16:10 1.1M
20260430T12Z_MSC_GDPS_WindU_IsbL-0550_LatLon0.15_PT069H.grib2 2026-04-30 16:10 1.1M
20260430T12Z_MSC_GDPS_WindU_IsbL-0600_LatLon0.15_PT069H.grib2 2026-04-30 16:10 1.1M
20260430T12Z_MSC_GDPS_WindU_IsbL-0650_LatLon0.15_PT069H.grib2 2026-04-30 16:10 1.2M
20260430T12Z_MSC_GDPS_WindU_IsbL-0700_LatLon0.15_PT069H.grib2 2026-04-30 16:10 1.2M
20260430T12Z_MSC_GDPS_WindU_IsbL-0750_LatLon0.15_PT069H.grib2 2026-04-30 16:10 1.3M
20260430T12Z_MSC_GDPS_WindU_IsbL-0800_LatLon0.15_PT069H.grib2 2026-04-30 16:10 1.4M
20260430T12Z_MSC_GDPS_WindU_IsbL-0850_LatLon0.15_PT069H.grib2 2026-04-30 16:10 1.4M
20260430T12Z_MSC_GDPS_WindU_IsbL-0875_LatLon0.15_PT069H.grib2 2026-04-30 16:10 1.5M
20260430T12Z_MSC_GDPS_WindU_IsbL-0900_LatLon0.15_PT069H.grib2 2026-04-30 16:10 1.5M
20260430T12Z_MSC_GDPS_WindU_IsbL-0925_LatLon0.15_PT069H.grib2 2026-04-30 16:10 1.5M
20260430T12Z_MSC_GDPS_WindU_IsbL-0950_LatLon0.15_PT069H.grib2 2026-04-30 16:10 1.4M
20260430T12Z_MSC_GDPS_WindU_IsbL-0970_LatLon0.15_PT069H.grib2 2026-04-30 16:10 1.4M
20260430T12Z_MSC_GDPS_WindU_IsbL-0985_LatLon0.15_PT069H.grib2 2026-04-30 16:10 1.4M
20260430T12Z_MSC_GDPS_WindU_IsbL-1000_LatLon0.15_PT069H.grib2 2026-04-30 16:10 1.4M
20260430T12Z_MSC_GDPS_WindU_IsbL-1015_LatLon0.15_PT069H.grib2 2026-04-30 16:10 1.4M
20260430T12Z_MSC_GDPS_WindV_AGL-10m_LatLon0.15_PT069H.grib2 2026-04-30 16:10 1.3M
20260430T12Z_MSC_GDPS_WindV_AGL-120m_LatLon0.15_PT069H.grib2 2026-04-30 16:10 1.0M
20260430T12Z_MSC_GDPS_WindV_AGL-40m_LatLon0.15_PT069H.grib2 2026-04-30 16:10 961K
20260430T12Z_MSC_GDPS_WindV_AGL-80m_LatLon0.15_PT069H.grib2 2026-04-30 16:10 966K
20260430T12Z_MSC_GDPS_WindV_IsbL-0001_LatLon0.15_PT069H.grib2 2026-04-30 16:10 709K
20260430T12Z_MSC_GDPS_WindV_IsbL-0005_LatLon0.15_PT069H.grib2 2026-04-30 16:10 856K
20260430T12Z_MSC_GDPS_WindV_IsbL-0010_LatLon0.15_PT069H.grib2 2026-04-30 16:10 882K
20260430T12Z_MSC_GDPS_WindV_IsbL-0020_LatLon0.15_PT069H.grib2 2026-04-30 16:10 937K
20260430T12Z_MSC_GDPS_WindV_IsbL-0030_LatLon0.15_PT069H.grib2 2026-04-30 16:10 938K
20260430T12Z_MSC_GDPS_WindV_IsbL-0050_LatLon0.15_PT069H.grib2 2026-04-30 16:10 1.0M
20260430T12Z_MSC_GDPS_WindV_IsbL-0100_LatLon0.15_PT069H.grib2 2026-04-30 16:10 1.1M
20260430T12Z_MSC_GDPS_WindV_IsbL-0150_LatLon0.15_PT069H.grib2 2026-04-30 16:10 1.0M
20260430T12Z_MSC_GDPS_WindV_IsbL-0175_LatLon0.15_PT069H.grib2 2026-04-30 16:10 1.0M
20260430T12Z_MSC_GDPS_WindV_IsbL-0200_LatLon0.15_PT069H.grib2 2026-04-30 16:10 837K
20260430T12Z_MSC_GDPS_WindV_IsbL-0225_LatLon0.15_PT069H.grib2 2026-04-30 16:10 848K
20260430T12Z_MSC_GDPS_WindV_IsbL-0250_LatLon0.15_PT069H.grib2 2026-04-30 16:10 849K
20260430T12Z_MSC_GDPS_WindV_IsbL-0275_LatLon0.15_PT069H.grib2 2026-04-30 16:10 876K
20260430T12Z_MSC_GDPS_WindV_IsbL-0300_LatLon0.15_PT069H.grib2 2026-04-30 16:10 924K
20260430T12Z_MSC_GDPS_WindV_IsbL-0350_LatLon0.15_PT069H.grib2 2026-04-30 16:10 875K
20260430T12Z_MSC_GDPS_WindV_IsbL-0400_LatLon0.15_PT069H.grib2 2026-04-30 16:10 876K
20260430T12Z_MSC_GDPS_WindV_IsbL-0450_LatLon0.15_PT069H.grib2 2026-04-30 16:10 877K
20260430T12Z_MSC_GDPS_WindV_IsbL-0500_LatLon0.15_PT069H.grib2 2026-04-30 16:10 1.1M
20260430T12Z_MSC_GDPS_WindV_IsbL-0550_LatLon0.15_PT069H.grib2 2026-04-30 16:10 1.1M
20260430T12Z_MSC_GDPS_WindV_IsbL-0600_LatLon0.15_PT069H.grib2 2026-04-30 16:10 1.1M
20260430T12Z_MSC_GDPS_WindV_IsbL-0650_LatLon0.15_PT069H.grib2 2026-04-30 16:10 1.2M
20260430T12Z_MSC_GDPS_WindV_IsbL-0700_LatLon0.15_PT069H.grib2 2026-04-30 16:10 1.2M
20260430T12Z_MSC_GDPS_WindV_IsbL-0750_LatLon0.15_PT069H.grib2 2026-04-30 16:10 1.3M
20260430T12Z_MSC_GDPS_WindV_IsbL-0800_LatLon0.15_PT069H.grib2 2026-04-30 16:10 1.3M
20260430T12Z_MSC_GDPS_WindV_IsbL-0850_LatLon0.15_PT069H.grib2 2026-04-30 16:10 1.4M
20260430T12Z_MSC_GDPS_WindV_IsbL-0875_LatLon0.15_PT069H.grib2 2026-04-30 16:10 1.4M
20260430T12Z_MSC_GDPS_WindV_IsbL-0900_LatLon0.15_PT069H.grib2 2026-04-30 16:10 1.4M
20260430T12Z_MSC_GDPS_WindV_IsbL-0925_LatLon0.15_PT069H.grib2 2026-04-30 16:10 1.4M
20260430T12Z_MSC_GDPS_WindV_IsbL-0950_LatLon0.15_PT069H.grib2 2026-04-30 16:10 1.4M
20260430T12Z_MSC_GDPS_WindV_IsbL-0970_LatLon0.15_PT069H.grib2 2026-04-30 16:10 1.4M
20260430T12Z_MSC_GDPS_WindV_IsbL-0985_LatLon0.15_PT069H.grib2 2026-04-30 16:10 1.4M
20260430T12Z_MSC_GDPS_WindV_IsbL-1000_LatLon0.15_PT069H.grib2 2026-04-30 16:10 1.4M
20260430T12Z_MSC_GDPS_WindV_IsbL-1015_LatLon0.15_PT069H.grib2 2026-04-30 16:10 1.3M